Weather in Nizhnyaya Tavda

Russia / Tyumen Oblast     57°40′01″N   66°10′38″E
temp.,
°C
wind,
m/s
gust,
m/s
humid.,
%
clouds,
%
prec.,
mm/h
press.,
hPa
HPBL,
m
28 january, thu
thu2823:00−5sw2695100 0.1 1025233
02:00−5sw3794100 0.1 1024223
05:00−7sw41094100 0.1 1024263
08:00−6sw51388100 0.0 1022359
11:00−3sw61485100 0.0 1021495
14:00−1sw6148399 0.0 1019619
17:00−1sw6158299 0.0 1019601
20:00−1wsw71584100 0.0 1019744
29 january, fri
fri2923:00−1wsw61387100 0.0 1019724
02:00−2wsw41190100 0.0 1020439
05:00−4wsw3793100 0.0 1022165
08:00−7sw3394100 0.0 102277
11:00−6sw3594100 0.0 1023180
14:00−5ssw2393100 0.0 1023247
17:00−7s2295100 0.0 102521
20:00−9sse2395100 0.0 102523
30 january, sat
sat3023:00−11se2394100 0.0 102643
02:00−12ese3495100 0.0 102591
05:00−13ese3596100 0.0 1025100
08:00−14ese359699 0.0 1023107
11:00−11se599391 0.0 1022281
14:00−8se5992100 0.0 1021351
17:00−7se4993100 0.0 1020337
20:00−7sse3894100 0.0 1018318
31 january, sun
sun3123:00−6sse3795100 0.2 1017324
02:00−7sse3696100 1.2 1016244
05:00−7s3696100 1.8 1016220
08:00−9sw239697 0.2 101636
11:00−9wsw259593 0.2 1017165
14:00−7wsw239382 0.0 1018248
17:00−11wsw129690 0.0 101921
20:00−13w129769 0.0 102021
1 february, mon
mon123:00−14sw129665 0.0 102120
02:00−14sse129698 0.0 102120
05:00−13sse339799 0.0 102042
08:00−12sse3696100 0.0 1018130
11:00−8sse61191100 0.0 1015352
14:00−6s71488100 0.0 1013602
17:00−5ssw61292100 1.2 1011584
20:00−5sw61292100 0.0 1011529